This is the latest recevied weather packets stored in our database for station/object VE3VGJ. If no packets are shown the sender has not sent any weather packets the latest 10 day(s).
| Time | Temp. | Humidity | Pressure | Rain* | Wind** | Luminosity | Snow |
|---|---|---|---|---|---|---|---|
| 1777813727 | 6.67° C | 55% | 1013.1 hPa | 0 mm | - | 434 W/m² | - |
| 1777813424 | 6.67° C | 54% | 1013.1 hPa | 0 mm | - | 76 W/m² | - |
| 1777813121 | 6.11° C | 54% | 1013.3 hPa | 0 mm | - | 217 W/m² | - |
| 1777812820 | 5.56° C | 53% | 1013.3 hPa | 0 mm | - | 116 W/m² | - |
| 1777812516 | 5.56° C | 57% | 1013.3 hPa | 0 mm | - | 104 W/m² | - |
| 1777812214 | 5.56° C | 61% | 1013.3 hPa | 0 mm | - | 66 W/m² | - |
| 1777811912 | 5° C | 60% | 1013.2 hPa | 0 mm | - | 67 W/m² | - |
| 1777811610 | 5° C | 59% | 1013.3 hPa | 0 mm | - | 69 W/m² | - |
| 1777811305 | 4.44° C | 57% | 1013.1 hPa | 0 mm | - | 66 W/m² | - |
| 1777811003 | 4.44° C | 59% | 1013.3 hPa | 0 mm | - | 155 W/m² | - |
| 1777810700 | 3.89° C | 57% | 1013.2 hPa | 0 mm | - | 93 W/m² | - |
| 1777810396 | 3.89° C | 57% | 1013.3 hPa | 0 mm | - | 71 W/m² | - |
| 1777810092 | 3.89° C | 56% | 1013.3 hPa | 0 mm | - | 108 W/m² | - |
| 1777809790 | 4.44° C | 53% | 1013.5 hPa | 0 mm | - | 99 W/m² | - |
| 1777809488 | 3.89° C | 56% | 1013.6 hPa | 0 mm | - | 193 W/m² | - |
| 1777809185 | 3.89° C | 58% | 1013.3 hPa | 0 mm | - | 177 W/m² | - |
| 1777808883 | 3.33° C | 61% | 1013.3 hPa | 0 mm | - | 162 W/m² | - |
| 1777808579 | 3.33° C | 60% | 1013.2 hPa | 0 mm | - | 148 W/m² | - |
| 1777808276 | 2.78° C | 62% | 1013.2 hPa | 0 mm | - | 138 W/m² | - |
| 1777807975 | 2.78° C | 62% | 1013.3 hPa | 0 mm | - | 126 W/m² | - |
| 1777807672 | 2.22° C | 64% | 1013.3 hPa | 0 mm | - | 111 W/m² | - |
| 1777807370 | 1.67° C | 65% | 1013.5 hPa | 0 mm | - | 98 W/m² | - |
| 1777807065 | 1.67° C | 66% | 1013.3 hPa | 0 mm | - | 88 W/m² | - |
| 1777806763 | 1.11° C | 69% | 1013.4 hPa | 0 mm | - | 78 W/m² | - |
| 1777806458 | 0.56° C | 71% | 1013.1 hPa | 0 mm | - | 68 W/m² | - |
* Rain latest hour (hover to see other rain measurements)
** Current wind speed in m/s (hover to see current wind gust speed)